N7DTY Weather Reports


Display with metric or nautical units.
time (UTC)temp
F
wind
direction
speed
MPH
gust
MPH
rain 1hr
in
rain 24hr
in
rain mn
in
humidity
%
barometer
mb
20260507221554 60 156 2.0 8.0 0.00 0.00 0.00 74 1018.1
20260507220152 61 175 3.0 8.0 0.00 0.00 0.00 72 1018.3
20260507214602 61 178 3.0 9.0 0.00 0.00 0.00 72 1018.6
20260507213046 62 183 3.0 8.0 0.00 0.00 0.00 72 1018.8
20260507211549 61 171 3.0 8.0 0.00 0.00 0.00 73 1018.9
20260507210045 61 209 2.0 5.0 0.00 0.00 0.00 74 1019.1
20260507204543 60 185 2.0 6.0 0.00 0.00 0.00 76 1019.3
20260507203056 59 151 4.0 8.0 0.00 0.00 0.00 75 1019.6
20260507201551 59 144 3.0 9.0 0.00 0.00 0.00 77 1019.8
20260507200053 59 159 3.0 9.0 0.00 0.00 0.00 76 1019.8
20260507194539 60 155 1.0 7.0 0.00 0.00 0.00 78 1019.8
20260507193044 60 198 2.0 7.0 0.00 0.00 0.00 76 1019.9
20260507191534 59 185 2.0 5.0 0.00 0.00 0.00 76 1020.0
20260507190032 57 193 1.0 5.0 0.00 0.00 0.00 79 1020.1
20260507184530 57 184 1.0 5.0 0.00 0.00 0.00 77 1020.3
20260507183030 56 171 2.0 5.0 0.00 0.00 0.00 78 1020.3
20260507181532 56 175 2.0 7.0 0.00 0.00 0.00 78 1020.4
20260507180036 55 169 2.0 6.0 0.00 0.00 0.00 77 1020.4
20260507174528 56 153 1.0 5.0 0.00 0.00 0.00 78 1020.5
20260507173032 56 153 1.0 5.0 0.00 0.00 0.00 75 1020.4
20260507171528 57 170 2.0 4.0 0.00 0.00 0.00 73 1020.4
20260507170028 57 194 0.0 4.0 0.00 0.00 0.00 75 1020.4
20260507164526 57 163 0.0 4.0 0.00 0.00 0.00 75 1020.3
20260507163022 56 186 1.0 5.0 0.00 0.00 0.00 77 1020.4
20260507161521 55 199 1.0 3.0 0.00 0.00 0.00 76 1020.4
20260507160020 56 196 1.0 5.0 0.00 0.00 0.00 75 1020.4
20260507154515 55 182 1.0 8.0 0.00 0.00 0.00 78 1020.6
20260507153012 54 165 2.0 6.0 0.00 0.00 0.00 78 1020.7
20260507151511 53 209 0.0 2.0 0.00 0.00 0.00 80 1020.6
20260507150019 53 171 1.0 6.0 0.00 0.00 0.00 83 1020.6
20260507144513 53 166 1.0 5.0 0.00 0.00 0.00 84 1020.7
20260507143001 53 150 2.0 5.0 0.00 0.00 0.00 84 1020.5
20260507141604 53 179 0.0 3.0 0.00 0.00 0.00 84 1020.5
20260507140101 53 161 0.0 3.0 0.00 0.00 0.00 84 1020.5
20260507134604 52 181 0.0 2.0 0.00 0.00 0.00 83 1020.5
20260507133123 52 181 0.0 2.0 0.00 0.00 0.00 83 1020.4
20260507131555 52 181 0.0 2.0 0.00 0.00 0.00 82 1020.3
20260507130105 52 181 0.0 0.0 0.00 0.00 0.00 81 1020.3
20260507124550 52 181 0.0 3.0 0.00 0.00 0.00 81 1020.3
20260507123053 52 178 0.0 1.0 0.00 0.00 0.00 81 1020.3
20260507121604 52 178 0.0 4.0 0.00 0.00 0.00 79 1020.5
20260507120057 52 173 1.0 5.0 0.00 0.00 0.00 80 1020.5
20260507114632 53 150 1.0 4.0 0.00 0.00 0.00 80 1020.6
20260507113047 52 182 1.0 5.0 0.00 0.00 0.00 80 1020.6
20260507111548 52 154 2.0 5.0 0.00 0.00 0.00 81 1020.7
20260507110045 53 153 1.0 7.0 0.00 0.00 0.00 80 1020.6
20260507104544 53 192 2.0 9.0 0.00 0.00 0.00 80 1020.5
20260507103044 53 165 1.0 8.0 0.00 0.00 0.00 80 1020.5
20260507101546 53 169 1.0 4.0 0.00 0.00 0.00 80 1020.6
20260507100042 53 135 1.0 5.0 0.00 0.00 0.00 80 1020.5
20260507094540 53 155 3.0 8.0 0.00 0.00 0.00 80 1020.5
20260507093041 53 219 1.0 9.0 0.00 0.00 0.00 80 1020.6
20260507091544 53 157 2.0 9.0 0.00 0.00 0.00 81 1020.5
20260507090038 53 202 4.0 9.0 0.00 0.00 0.00 80 1020.6
20260507084536 53 160 3.0 7.0 0.00 0.00 0.00 80 1020.6
20260507083034 53 183 1.0 8.0 0.00 0.00 0.00 81 1020.6
20260507081531 53 152 2.0 8.0 0.00 0.00 0.00 81 1020.6
20260507080030 53 169 3.0 10.0 0.00 0.00 0.00 80 1020.5
20260507074528 53 186 4.0 12.0 0.00 0.00 0.00 80 1020.4
20260507073027 54 202 2.0 10.0 0.00 0.00 0.00 80 1020.3
20260507071524 54 188 3.0 11.0 0.00 0.00 0.00 79 1020.3
20260507070028 54 175 4.0 13.0 0.00 0.00 0.00 79 1020.1
20260507064524 54 146 2.0 14.0 0.00 0.00 0.00 81 1020.0
20260507063020 54 144 3.0 9.0 0.00 0.00 0.00 81 1019.9
20260507061521 54 130 4.0 11.0 0.00 0.00 0.00 81 1019.9
20260507060019 54 165 3.0 8.0 0.00 0.00 0.00 81 1019.9
20260507054524 54 183 2.0 8.0 0.00 0.00 0.00 82 1019.8
20260507053018 54 179 3.0 11.0 0.00 0.00 0.00 82 1019.8
20260507051518 54 166 4.0 12.0 0.00 0.00 0.00 82 1019.8
20260507050022 55 155 2.0 7.0 0.00 0.00 0.00 81 1020.0
20260507044517 55 184 2.0 8.0 0.00 0.00 0.00 80 1020.0
20260507043022 55 183 4.0 9.0 0.00 0.00 0.00 80 1019.9
20260507041517 55 179 1.0 8.0 0.00 0.00 0.00 81 1019.8
20260507040015 55 157 3.0 9.0 0.00 0.00 0.00 81 1019.9
20260507034515 55 163 2.0 8.0 0.00 0.00 0.00 81 1019.8
20260507033014 55 157 4.0 10.0 0.00 0.00 0.00 81 1019.8
20260507031514 54 197 1.0 8.0 0.00 0.00 0.00 83 1019.6
20260507030013 54 165 3.0 9.0 0.00 0.00 0.00 83 1019.6
20260507024514 54 187 3.0 7.0 0.00 0.00 0.00 82 1019.7
20260507023012 55 157 3.0 8.0 0.00 0.00 0.00 81 1019.6
20260507021512 55 213 3.0 8.0 0.00 0.00 0.00 81 1019.6
20260507020011 55 198 4.0 8.0 0.00 0.00 0.00 82 1019.6
20260507014513 55 178 2.0 6.0 0.00 0.00 0.00 82 1019.7
20260507013020 56 184 3.0 8.0 0.00 0.00 0.00 79 1019.7
20260507011513 56 156 4.0 10.0 0.00 0.00 0.00 78 1019.6
20260507010013 56 165 2.0 8.0 0.00 0.00 0.00 79 1019.6
20260507004509 56 167 3.0 9.0 0.00 0.00 0.00 79 1019.8
20260507003008 56 165 3.0 10.0 0.00 0.00 0.00 79 1019.8
20260507001510 56 186 2.0 10.0 0.00 0.00 0.00 80 1019.7
20260507000007 56 219 2.0 9.0 0.00 0.00 0.00 79 1019.6
20260506234506 56 180 1.0 7.0 0.00 0.00 0.00 80 1019.6
20260506233008 56 173 3.0 9.0 0.00 0.00 0.00 79 1019.6
20260506231506 56 151 2.0 8.0 0.00 0.00 0.00 78 1019.7
20260506230008 56 173 3.0 9.0 0.00 0.00 0.00 79 1019.7
20260506224505 57 179 2.0 10.0 0.00 0.00 0.00 78 1019.9
20260506223004 57 172 5.0 12.0 0.00 0.00 0.00 76 1020.0